Weather History for Bozeman, MT

Change the Weather History Date:

Friday, October 25, 2013

  Actual Average Record
Temperature  
Mean Temperature 44 °F 43 °F  
Max Temperature 63 °F 57 °F 76 °F (1990)
Min Temperature 24 °F 28 °F 9 °F (1961)
Degree Days  
Heating Degree Days 21    
Month to date heating degree days 616  
Since 1 July heating degree days 825  
Cooling Degree Days 0    
Month to date cooling degree days 0  
Year to date cooling degree days 284  
Moisture  
Dew Point 27 °F    
Average Humidity 55    
Maximum Humidity 85    
Minimum Humidity 25    
Precipitation  
Precipitation 0.00 in 0.03 in 0.39 in (1946)
Month to date precipitation 0.34 0.92  
Year to date precipitation 11.11 12.53  
Snow  
Snow 0.00 in 0.10 in 4.00 in (1969)
Month to date snowfall T 1.4  
Since 1 July snowfall T 1.7  
Since 1 September snowfall T 1.7  
Snow Depth 0.00 in    
Sea Level Pressure  
Sea Level Pressure 30.29 in    
Wind  
Wind Speed 3 mph (SSE)    
Max Wind Speed 13 mph    
Max Gust Speed 20 mph    
Visibility 10 miles    
Events      
T = Trace of Precipitation, MM = Missing Value Source: NWS Daily Summary

Daily Weather History Graph

Daily Weather History Graph

Search for Another Location

Airport:

Trip Planner

Search our weather history database for the weather conditions in past years. The results will help you decide how hot, cold, wet, or windy it might be!

Date:

Astronomy

Oct. 25, 2013 Rise Set
Actual Time 7:55 AM MDT 6:21 PM MDT
Civil Twilight 7:24 AM MDT 6:51 PM MDT
Nautical Twilight 6:49 AM MDT 7:26 PM MDT
Astronomical Twilight 6:15 AM MDT 8:01 PM MDT
Moon 11:40 PM MDT (10/25) 1:43 PM MDT (10/25)
Length of Visible Light 11h 27m
Length of Day
10h 25m
Waning Gibbous, 62% of the Moon is Illuminated
Oct 25
Waning Gibbous
Oct 26
Last Quarter
Nov 3
New
Nov 9
First Quarter
Nov 17
Full

Hourly Weather History & Observations

Time (MDT) Temp. Windchill Dew Point Humidity Pressure Visibility Wind Dir Wind Speed Gust Speed Precip Events Conditions
12:56 AM 33.1 °F 26.1 °F 26.1 °F 75% 30.20 in 10.0 mi SSE 8.1 mph - N/A   Clear
1:56 AM 28.9 °F 23.9 °F 24.1 °F 82% 30.21 in 10.0 mi SSE 4.6 mph - N/A   Clear
2:56 AM 27.0 °F 20.5 °F 21.9 °F 81% 30.23 in 10.0 mi SE 5.8 mph - N/A   Clear
3:56 AM 30.0 °F 25.2 °F 25.0 °F 82% 30.22 in 10.0 mi SE 4.6 mph - N/A   Clear
4:56 AM 30.0 °F - 24.1 °F 79% 30.23 in 10.0 mi Calm Calm - N/A   Clear
5:56 AM 27.0 °F 23.0 °F 21.9 °F 81% 30.25 in 10.0 mi ESE 3.5 mph - N/A   Clear
6:56 AM 26.1 °F 19.4 °F 21.9 °F 84% 30.27 in 10.0 mi SE 5.8 mph - N/A   Clear
7:56 AM 27.0 °F - 23.0 °F 85% 30.31 in 10.0 mi Calm Calm - N/A   Clear
8:56 AM 30.0 °F - 25.0 °F 82% 30.34 in 10.0 mi Calm Calm - N/A   Clear
9:56 AM 41.0 °F - 30.0 °F 65% 30.33 in 10.0 mi Calm Calm - N/A   Clear
10:56 AM 45.0 °F - 32.0 °F 60% 30.31 in 10.0 mi Calm Calm - N/A   Clear
11:56 AM 48.9 °F - 30.9 °F 50% 30.32 in 10.0 mi West 3.5 mph - N/A   Clear
12:56 PM 53.1 °F - 28.9 °F 40% 30.29 in 10.0 mi Calm Calm - N/A   Clear
1:56 PM 57.9 °F - 30.0 °F 35% 30.28 in 10.0 mi Calm Calm - N/A   Clear
2:56 PM 60.1 °F - 28.9 °F 31% 30.28 in 10.0 mi Calm Calm - N/A   Clear
3:56 PM 61.0 °F - 27.0 °F 27% 30.26 in 10.0 mi Calm Calm - N/A   Clear
4:56 PM 63.0 °F - 27.0 °F 26% 30.26 in 10.0 mi Calm Calm - N/A   Clear
5:56 PM 59.0 °F - 30.0 °F 33% 30.28 in 10.0 mi Calm Calm - N/A   Clear
6:56 PM 54.0 °F - 27.0 °F 35% 30.30 in 10.0 mi SSW 3.5 mph - N/A   Clear
7:56 PM 42.1 °F 36.1 °F 30.9 °F 65% 30.35 in 10.0 mi SSE 10.4 mph - N/A   Clear
8:56 PM 36.0 °F 29.6 °F 28.0 °F 73% 30.37 in 10.0 mi SSE 8.1 mph - N/A   Clear
9:56 PM 37.9 °F 30.9 °F 28.0 °F 68% 30.32 in 10.0 mi South 10.4 mph - N/A   Clear
10:56 PM 35.1 °F 28.6 °F 27.0 °F 72% 30.34 in 10.0 mi SSE 8.1 mph - N/A   Clear
11:56 PM 32.0 °F 27.5 °F 25.0 °F 75% 30.34 in 10.0 mi SE 4.6 mph - N/A   Clear